Location: Stockholm
(59.3330°N, 18.0500°E)
Time: 20:33:57
(UTC+02:00)

CUTE 1.7 + AOD 2 - Visible Passes

Search period start: 28 March 2023 00:00
Search period end: 07 April 2023 00:00
Orbit: 584 x 602 km, 97.7° (Epoch: 27 March)

Date Brightness Start Highest point End Pass type
(mag) Time Alt. Az. Time Alt. Az. Time Alt. Az.
28 Mar ? 03:34:48 10° NE 03:38:06 22° E 03:41:23 10° SE visible
28 Mar ? 05:09:56 10° NNE 05:14:08 69° WNW 05:18:19 10° SSW visible
29 Mar ? 03:43:38 10° NE 03:47:10 25° E 03:50:41 10° SSE visible
29 Mar ? 05:18:56 10° N 05:23:05 59° WNW 05:27:14 10° SSW visible
30 Mar ? 03:52:29 10° NNE 03:56:13 29° E 03:59:55 10° SSE visible
30 Mar ? 05:27:56 10° N 05:32:01 50° WNW 05:36:06 10° SW visible
31 Mar ? 04:01:21 10° NNE 04:05:14 34° E 04:09:06 10° SSE visible
31 Mar ? 05:36:56 10° N 05:40:56 43° WNW 05:44:56 10° SW visible
01 Apr ? 04:10:13 10° NNE 04:14:14 40° E 04:18:13 10° SSE visible
02 Apr ? 04:19:06 10° NNE 04:23:12 47° E 04:27:17 10° S visible
03 Apr ? 02:54:39 10° ENE 02:55:36 11° E 02:56:35 10° E visible
03 Apr ? 04:27:59 10° NNE 04:32:09 56° ESE 04:36:19 10° S visible
04 Apr ? 03:02:47 10° NE 03:04:40 13° E 03:06:32 10° ESE visible
04 Apr ? 04:36:52 10° NNE 04:41:05 66° ESE 04:45:18 10° S visible
05 Apr ? 03:11:16 10° NE 03:13:41 15° E 03:16:05 10° ESE visible
05 Apr ? 04:45:45 10° NNE 04:50:00 78° ESE 04:54:14 10° SSW visible
06 Apr ? 03:19:51 10° NE 03:22:41 17° E 03:25:30 10° SE visible
06 Apr ? 04:54:37 10° NNE 04:58:53 89° W 05:03:07 10° SSW visible
